Change the Weather History Date:

Wednesday, November 13, 2013

  Actual Average Record
Temperature  
Mean Temperature 28 °F -  
Max Temperature 37 °F 46 °F 64 °F (2010)
Min Temperature 18 °F 29 °F 14 °F (2001)
Degree Days  
Heating Degree Days 38    
Moisture  
Dew Point 12 °F    
Average Humidity 53    
Maximum Humidity 73    
Minimum Humidity 32    
Precipitation  
Precipitation 0.00 in - - ()
Sea Level Pressure  
Sea Level Pressure 30.28 in    
Wind  
Wind Speed 7 mph (West)    
Max Wind Speed 16 mph    
Max Gust Speed -    
Visibility 10 miles    
Events      
Averages and records for this station are not official NWS values.
T = Trace of Precipitation, MM = Missing Value Source: NWS Daily Summary

Daily Weather History Graph

Daily Weather History Graph

Search for Another Location

Airport or City:

Trip Planner

Search our weather history database for the weather conditions in past years. The results will help you decide how hot, cold, wet, or windy it might be!

Date:

Astronomy

Nov. 13, 2013 Rise Set
Actual Time 6:38 AM EST 4:30 PM EST
Civil Twilight 6:08 AM EST 5:00 PM EST
Nautical Twilight 5:34 AM EST 5:33 PM EST
Astronomical Twilight 5:01 AM EST 6:06 PM EST
Moon 2:19 PM EST (11/13) 2:24 AM EST (11/13)
Length of Visible Light 10h 51m
Length of Day
9h 51m
Waxing Gibbous, 84% of the Moon is Illuminated
Nov 13
Waxing Gibbous
Nov 17
Full
Nov 25
Last Quarter
Dec 2
New
Dec 9
First Quarter

Hourly Weather History & Observations

Time (EST) Temp. Windchill Dew Point Humidity Pressure Visibility Wind Dir Wind Speed Gust Speed Precip Events Conditions
12:58 AM 21.9 °F 15.7 °F 11.3 °F 64% 30.25 in 10.0 mi NW 4.6 mph - N/A   Clear
1:58 AM 20.8 °F - 12.2 °F 69% 30.26 in 10.0 mi North 2.3 mph - N/A   Clear
2:58 AM 19.6 °F 8.9 °F 12.2 °F 73% 30.25 in 10.0 mi NW 9.2 mph - N/A   Clear
3:58 AM 20.7 °F 11.0 °F 12.2 °F 70% 30.27 in 10.0 mi NW 8.1 mph - N/A   Clear
4:58 AM 18.9 °F - 11.3 °F 72% 30.27 in 10.0 mi Calm Calm - N/A   Clear
5:58 AM 20.1 °F 12.3 °F 12.0 °F 71% 30.29 in 10.0 mi NNE 5.8 mph - N/A   Clear
6:58 AM 21.0 °F 12.4 °F 11.3 °F 66% 30.31 in 10.0 mi NW 6.9 mph - N/A   Clear
7:58 AM 24.6 °F 18.8 °F 15.4 °F 68% 30.34 in 10.0 mi Variable 4.6 mph - N/A   Clear
8:58 AM 27.0 °F 19.5 °F 13.3 °F 56% 30.35 in 10.0 mi Variable 6.9 mph - N/A   Clear
9:58 AM 28.8 °F 25.0 °F 11.8 °F 49% 30.34 in 10.0 mi Variable 3.5 mph - N/A   Clear
10:58 AM 32.2 °F 25.0 °F 10.6 °F 41% 30.32 in 10.0 mi West 8.1 mph - N/A   Clear
11:58 AM 34.3 °F 25.9 °F 10.8 °F 38% 30.30 in 10.0 mi NW 11.5 mph - N/A   Clear
12:58 PM 35.6 °F 25.9 °F 9.3 °F 34% 30.28 in 10.0 mi WNW 16.1 mph - N/A   Clear
1:58 PM 37.0 °F 29.8 °F 9.3 °F 32% 30.27 in 10.0 mi West 10.4 mph - N/A   Clear
2:30 PM 35.6 °F 25.9 °F 8.6 °F 33% 30.24 in 10.0 mi West 16.1 mph - N/A   Clear
2:58 PM 35.6 °F 27.5 °F 8.6 °F 33% 30.28 in 10.0 mi West 11.5 mph - N/A   Clear
3:58 PM 34.2 °F 26.2 °F 9.3 °F 36% 30.27 in 10.0 mi WNW 10.4 mph - N/A   Clear
4:58 PM 29.5 °F 21.1 °F 8.4 °F 41% 30.28 in 10.0 mi West 9.2 mph - N/A   Clear
5:58 PM 29.8 °F 23.9 °F 9.5 °F 43% 30.29 in 10.0 mi West 5.8 mph - N/A   Clear
6:58 PM 25.9 °F 18.2 °F 11.1 °F 54% 30.29 in 10.0 mi SW 6.9 mph - N/A   Clear
7:58 PM 26.8 °F 19.3 °F 12.9 °F 56% 30.28 in 10.0 mi SSW 6.9 mph - N/A   Clear
8:58 PM 25.5 °F 17.8 °F 14.2 °F 62% 30.27 in 10.0 mi SSW 6.9 mph - N/A   Scattered Clouds
9:58 PM 29.1 °F 21.3 °F 15.4 °F 57% 30.25 in 10.0 mi SSW 8.1 mph - N/A   Clear
10:58 PM 27.7 °F 21.3 °F 15.6 °F 61% 30.23 in 10.0 mi South 5.8 mph - N/A   Partly Cloudy
11:58 PM 28.2 °F 21.0 °F 15.3 °F 58% 30.21 in 10.0 mi South 6.9 mph - N/A   Clear